Location: Banios
(43.0451°N, 0.2335°E)
Time: 23:48:27
(UTC+00:00)

N. Korean satellite - Pass Details

Date: 10 December 2021
Orbit: 447 x 491 km, 97.3° (Epoch: 21 January)

Event Time Altitude Azimuth Distance (km) Brightness Sun altitude
Rises 17:14:35 0° 201° (SSW) 2,507 10.9 -9.0°
Reaches altitude 10° 17:17:07 10° 220° (SW) 1,625 10.3 -9.4°
Maximum altitude 17:19:37 18° 266° (W) 1,192 9.7 -9.9°
Drops below altitude 10° 17:22:07 10° 312° (NW) 1,617 9.6 -10.3°
Sets 17:24:37 0° 332° (NNW) 2,488 10.3 -10.7°
